[ hide orbit diagram ]
For accurate long-term ephemerides, please instead use our Horizons system.This orbit viewer was implemented using two-body methods, and hence should not be used for determining accurate long-term trajectories (over several years or decades) or planetary encounter circumstances.
Orbital Elements at Epoch 2459000.5 (2020-May-31.0) TDB
Reference: JPL 11 (heliocentric ecliptic J2000)
Element | Value | Uncertainty (1-sigma) | Units |
e | .2760767032480514 | 5.2058e-08 | |
a | 2.356934645695193 | 1.5759e-08 | au |
q | 1.70623989894055 | 1.2292e-07 | au |
i | 25.87268180485967 | 6.7145e-06 | deg |
node | 122.0207309762333 | 1.5802e-05 | deg |
peri | 348.4378694193574 | 2.0984e-05 | deg |
M | 145.3355040346358 | 1.1629e-05 | deg |
tp | 2458466.933004643336 (2018-Dec-14.43300464) | 4.2166e-05 | TDB |
period | 1321.659972931475 3.62 | 1.3255e-05 3.629e-08 | d yr |
n | .2723847338748642 | 2.7318e-09 | deg/d |
Q | 3.007629392449836 | 2.011e-08 | au |
|
| | Orbit Determination Parameters
Additional Information
|
[ hide covariance matrix ]
Orbital Elements at Epoch 2457271.5 (2015-Sep-06.0) TDB
Reference: JPL 11 (heliocentric ecliptic J2000)
Element | Value | Uncertainty (1-sigma) | Units |
e | .2770293326599562 | 5.2102e-08 | |
q | 1.703007760010148 | 1.2324e-07 | au |
tp | 2457146.963262338684 (2015-May-04.46326234) | 4.3702e-05 | TDB |
node | 122.0512717152659 | 1.5811e-05 | deg |
peri | 348.3898549281379 | 2.0913e-05 | deg |
i | 25.87238751735716 | 6.715e-06 | deg |
|
| | Orbit Determination Parameters
Additional Information
|
Orbit Covariance (6×6)
|
|
e |
q |
tp |
node |
peri |
i |
e |
2.714644173827941E-15 |
-6.393007488172659E-15 |
2.265810409846154E-13 |
-8.238365663994781E-15 |
3.761994597849521E-14 |
-9.644798524205982E-15 |
q |
-6.393007488172659E-15 |
1.518893461559245E-14 |
-6.829843811748628E-13 |
1.501606934036755E-14 |
-1.257583442734523E-13 |
2.435285066698097E-14 |
tp |
2.265810409846154E-13 |
-6.829843811748628E-13 |
1.909867736556442E-9 |
-8.970289181563154E-12 |
6.371416822309476E-10 |
-8.523395859478883E-12 |
node |
-8.238365663994781E-15 |
1.501606934036755E-14 |
-8.970289181563154E-12 |
2.499755640952725E-10 |
-2.266750158281024E-10 |
3.148019029422452E-12 |
peri |
3.761994597849521E-14 |
-1.257583442734523E-13 |
6.371416822309476E-10 |
-2.266750158281024E-10 |
4.373637400495259E-10 |
-5.721752281410767E-12 |
i |
-9.644798524205982E-15 |
2.435285066698097E-14 |
-8.523395859478883E-12 |
3.148019029422452E-12 |
-5.721752281410767E-12 |
4.50908559060074E-11 |
|
Physical Parameter Table
Parameter |
Symbol |
Value |
Units |
Sigma |
Reference |
Notes |
absolute magnitude |
H |
17.2 |
|
n/a |
MPO472144 |
|
|
410415 (2007 YZ70) Discovered 2007-Dec-16 by LINEAR at Socorro |
Reference: | Last Updated: 2014-10-09 |
|
|